QPF
0.00 0.00 0.00 0.00 0.00 0.00 0.00 0.01 0.01 0.01 0.01 0.01 0.01 0.01 0.01 0.00 0.00 0.00 0.01 0.01 0.01 0.01 0.01 0.01 0.01 0.01 0.01 0.01 0.01 0.01 0.01 0.01 0.01 0.02 0.03 0.03 0.03 0.03 0.03 0.03 0.03 0.03 0.03 0.03
0.00 0.00 0.00 0.00 0.00 0.00 0.00 0.00 0.01 0.01 0.01 0.01 0.01 0.01 0.01 0.01 0.00 0.00 0.01 0.01 0.01 0.01 0.01 0.01 0.01 0.01 0.01 0.00 0.00 0.01 0.01 0.01 0.01 0.02 0.02 0.03 0.03 0.03 0.03 0.03 0.03 0.04 0.04 0.03
0.01 0.00 0.00 0.00 0.00 0.00 0.00 0.00 0.01 0.01 0.01 0.01 0.01 0.01 0.01 0.00 0.00 0.00 0.01 0.01 0.01 0.01 0.01 0.01 0.01 0.01 0.01 0.00 0.00 0.00 0.01 0.01 0.01 0.01 0.02 0.03 0.03 0.03 0.03 0.03 0.03 0.04 0.04 0.04
0.01 0.00 0.01 0.00 0.00 0.00 0.00 0.00 0.00 0.00 0.00 0.00 0.01 0.01 0.00 0.00 0.00 0.01 0.01 0.01 0.01 0.01 0.01 0.01 0.01 0.01 0.01 0.01 0.01 0.01 0.01 0.02 0.02 0.02 0.02 0.02 0.03 0.03 0.03 0.02 0.02 0.02 0.03 0.03
0.01 0.01 0.00 0.00 0.00 0.00 0.00 0.00 0.00 0.00 0.00 0.00 0.00 0.00 0.00 0.00 0.00 0.00 0.00 0.01 0.01 0.01 0.01 0.01 0.01 0.01 0.01 0.01 0.01 0.01 0.01 0.02 0.02 0.02 0.02 0.02 0.02 0.02 0.02 0.02 0.02 0.01 0.02 0.02
0.01 0.01 0.01 0.00 0.00 0.00 0.00 0.01 0.01 0.00 0.00 0.00 0.00 0.00 0.00 0.00 0.00 0.00 0.00 0.00 0.00 0.00 0.01 0.01 0.01 0.01 0.01 0.01 0.01 0.01 0.01 0.01 0.01 0.01 0.02 0.02 0.02 0.02 0.02 0.02 0.02 0.01 0.01 0.02
0.01 0.01 0.01 0.00 0.00 0.00 0.01 0.01 0.01 0.00 0.00 0.00 0.00 0.00 0.00 0.00 0.00 0.00 0.00 0.00 0.00 0.00 0.00 0.01 0.01 0.01 0.01 0.01 0.01 0.01 0.00 0.01 0.01 0.01 0.01 0.02 0.02 0.02 0.02 0.02 0.02 0.01 0.01 0.01
0.01 0.01 0.01 0.00 0.00 0.01 0.01 0.01 0.00 0.00 0.00 0.00 0.00 0.00 0.00 0.00 0.00 0.00 0.00 0.00 0.00 0.00 0.00 0.00 0.01 0.01 0.01 0.01 0.01 0.01 0.01 0.01 0.01 0.01 0.01 0.01 0.02 0.02 0.02 0.02 0.02 0.02 0.01 0.01
0.01 0.01 0.00 0.00 0.00 0.00 0.00 0.01 0.00 0.00 0.00 0.00 0.00 0.00 0.00 0.00 0.00 0.00 0.00 0.00 0.00 0.01 0.01 0.01 0.01 0.01 0.01 0.01 0.01 0.01 0.01 0.01 0.01 0.01 0.01 0.01 0.02 0.02 0.02 0.02 0.03 0.03 0.03 0.03
0.00 0.00 0.00 0.00 0.00 0.00 0.00 0.01 0.00 0.00 0.00 0.00 0.00 0.00 0.00 0.00 0.00 0.00 0.00 0.00 0.00 0.01 0.01 0.01 0.01 0.01 0.01 0.01 0.01 0.01 0.01 0.01 0.01 0.02 0.02 0.02 0.02 0.03 0.03 0.03 0.04 0.04 0.04 0.04
0.00 0.00 0.00 0.00 0.00 0.00 0.00 0.00 0.00 0.00 0.00 0.00 0.00 0.00 0.00 0.00 0.00 0.00 0.00 0.01 0.01 0.01 0.01 0.01 0.01 0.01 0.01 0.01 0.01 0.01 0.01 0.01 0.02 0.02 0.02 0.02 0.03 0.04 0.05 0.05 0.05 0.05 0.05 0.05
0.01 0.00 0.00 0.00 0.00 0.00 0.00 0.01 0.00 0.00 0.00 0.00 0.00 0.00 0.00 0.00 0.00 0.01 0.01 0.01 0.01 0.01 0.01 0.01 0.01 0.01 0.01 0.01 0.01 0.01 0.01 0.01 0.01 0.02 0.02 0.02 0.03 0.04 0.04 0.05 0.05 0.04 0.04 0.05
0.00 0.00 0.00 0.00 0.00 0.00 0.01 0.01 0.00 0.00 0.00 0.00 0.00 0.00 0.01 0.01 0.01 0.01 0.01 0.01 0.01 0.01 0.01 0.01 0.01 0.01 0.01 0.01 0.01 0.01 0.02 0.02 0.02 0.02 0.03 0.03 0.03 0.03 0.04 0.05 0.05 0.05 0.05 0.04
0.00 0.00 0.00 0.00 0.00 0.00 0.00 0.00 0.00 0.00 0.00 0.00 0.00 0.00 0.01 0.01 0.01 0.01 0.01 0.01 0.01 0.01 0.01 0.01 0.01 0.01 0.01 0.01 0.01 0.01 0.01 0.02 0.02 0.03 0.03 0.03 0.03 0.03 0.03 0.03 0.04 0.04 0.04 0.04
0.00 0.00 0.00 0.00 0.00 0.00 0.00 0.00 0.00 0.00 0.00 0.00 0.00 0.00 0.00 0.01 0.01 0.01 0.01 0.01 0.01 0.01 0.01 0.01 0.01 0.01 0.01 0.01 0.01 0.01 0.01 0.01 0.02 0.02 0.02 0.03 0.03 0.04 0.04 0.03 0.03 0.03 0.03 0.03
0.01 0.01 0.01 0.01 0.01 0.00 0.00 0.00 0.00 0.00 0.00 0.00 0.00 0.00 0.00 0.01 0.01 0.01 0.01 0.01 0.01 0.01 0.01 0.01 0.01 0.01 0.01 0.01 0.01 0.01 0.01 0.01 0.01 0.01 0.02 0.02 0.03 0.03 0.03 0.03 0.03 0.03 0.02 0.03
0.01 0.01 0.00 0.01 0.00 0.00 0.00 0.01 0.01 0.01 0.01 0.01 0.01 0.01 0.01 0.01 0.00 0.00 0.00 0.01 0.01 0.01 0.01 0.01 0.01 0.01 0.01 0.01 0.01 0.01 0.01 0.01 0.01 0.01 0.01 0.02 0.02 0.03 0.02 0.02 0.02 0.02 0.03 0.03
0.01 0.01 0.00 0.00 0.00 0.00 0.00 0.00 0.00 0.00 0.00 0.00 0.00 0.00 0.00 0.01 0.01 0.00 0.01 0.01 0.01 0.00 0.01 0.01 0.01 0.01 0.01 0.01 0.01 0.01 0.01 0.01 0.01 0.01 0.01 0.01 0.02 0.02 0.02 0.02 0.02 0.02 0.02 0.03
0.00 0.00 0.00 0.00 0.00 0.00 0.00 0.00 0.00 0.00 0.00 0.00 0.00 0.00 0.01 0.01 0.01 0.01 0.01 0.01 0.00 0.00 0.00 0.00 0.01 0.01 0.01 0.01 0.02 0.02 0.02 0.01 0.01 0.01 0.01 0.01 0.02 0.02 0.02 0.02 0.02 0.02 0.02 0.02
0.00 0.00 0.00 0.00 0.00 0.00 0.00 0.00 0.00 0.00 0.00 0.01 0.01 0.01 0.00 0.00 0.01 0.01 0.01 0.00 0.01 0.01 0.01 0.01 0.01 0.01 0.01 0.01 0.02 0.03 0.02 0.02 0.02 0.02 0.02 0.02 0.02 0.03 0.03 0.03 0.03 0.02 0.02 0.02
0.00 0.00 0.00 0.00 0.00 0.00 0.00 0.00 0.00 0.00 0.00 0.01 0.01 0.01 0.01 0.01 0.01 0.01 0.01 0.00 0.00 0.01 0.01 0.01 0.01 0.01 0.01 0.02 0.03 0.03 0.03 0.02 0.02 0.02 0.03 0.03 0.03 0.02 0.02 0.03 0.03 0.03 0.02 0.02
0.00 0.00 0.00 0.00 0.00 0.00 0.00 0.00 0.00 0.00 0.00 0.00 0.00 0.00 0.01 0.01 0.01 0.00 0.00 0.01 0.01 0.01 0.01 0.01 0.01 0.02 0.02 0.03 0.03 0.03 0.03 0.03 0.03 0.03 0.03 0.02 0.02 0.02 0.02 0.03 0.03 0.03 0.03 0.02
0.00 0.00 0.00 0.00 0.00 0.00 0.00 0.00 0.00 0.00 0.00 0.00 0.01 0.01 0.01 0.01 0.01 0.01 0.01 0.01 0.01 0.01 0.01 0.01 0.02 0.02 0.02 0.02 0.02 0.02 0.02 0.03 0.03 0.03 0.03 0.03 0.03 0.03 0.03 0.03 0.03 0.03 0.03 0.03
0.00 0.00 0.00 0.00 0.00 0.00 0.00 0.00 0.00 0.00 0.00 0.01 0.01 0.01 0.01 0.01 0.01 0.01 0.01 0.01 0.01 0.01 0.01 0.01 0.01 0.02 0.02 0.01 0.02 0.02 0.02 0.02 0.02 0.02 0.02 0.02 0.03 0.03 0.03 0.03 0.03 0.03 0.03 0.03
0.00 0.00 0.00 0.00 0.00 0.00 0.00 0.00 0.00 0.00 0.00 0.00 0.00 0.01 0.01 0.01 0.01 0.01 0.01 0.01 0.01 0.01 0.01 0.01 0.01 0.01 0.01 0.01 0.01 0.01 0.01 0.02 0.02 0.02 0.02 0.02 0.02 0.02 0.03 0.02 0.02 0.02 0.02 0.03
0.01 0.01 0.01 0.01 0.01 0.01 0.00 0.00 0.00 0.00 0.00 0.00 0.00 0.00 0.00 0.01 0.01 0.01 0.00 0.00 0.01 0.01 0.01 0.01 0.01 0.01 0.01 0.01 0.01 0.01 0.01 0.02 0.02 0.02 0.02 0.02 0.02 0.02 0.02 0.02 0.02 0.02 0.02 0.02
0.01 0.01 0.01 0.01 0.01 0.01 0.01 0.01 0.01 0.00 0.00 0.01 0.01 0.00 0.00 0.00 0.00 0.00 0.00 0.00 0.00 0.01 0.01 0.01 0.01 0.01 0.01 0.01 0.01 0.01 0.01 0.01 0.01 0.02 0.02 0.02 0.02 0.02 0.02 0.02 0.02 0.02 0.03 0.03
MSLP
1023.70 1023.59 1023.44 1023.28 1023.15 1023.07 1023.09 1023.23 1023.50 1023.91 1024.44 1025.09 1025.82 1026.61 1027.42 1028.22 1029.00 1029.73 1030.41 1031.04 1031.62 1032.16 1032.67 1033.16 1033.62 1034.05 1034.44 1034.77 1035.03 1035.22 1035.31 1035.32 1035.25 1035.10 1034.89 1034.64 1034.36 1034.06 1033.74 1033.41 1033.06 1032.69 1032.30 1031.88
1024.35 1024.22 1024.04 1023.86 1023.69 1023.59 1023.59 1023.70 1023.95 1024.34 1024.86 1025.48 1026.19 1026.94 1027.71 1028.47 1029.21 1029.90 1030.55 1031.15 1031.71 1032.23 1032.73 1033.20 1033.65 1034.06 1034.42 1034.73 1034.97 1035.12 1035.20 1035.19 1035.11 1034.96 1034.76 1034.51 1034.23 1033.92 1033.58 1033.23 1032.84 1032.43 1032.00 1031.54
1025.04 1024.92 1024.76 1024.57 1024.40 1024.29 1024.28 1024.38 1024.62 1024.99 1025.48 1026.08 1026.75 1027.46 1028.19 1028.90 1029.58 1030.22 1030.82 1031.37 1031.88 1032.37 1032.83 1033.26 1033.66 1034.03 1034.35 1034.61 1034.80 1034.93 1034.98 1034.95 1034.87 1034.73 1034.53 1034.29 1034.02 1033.71 1033.36 1032.98 1032.56 1032.11 1031.64 1031.14
1025.62 1025.56 1025.44 1025.29 1025.16 1025.07 1025.07 1025.19 1025.43 1025.79 1026.26 1026.83 1027.47 1028.13 1028.80 1029.45 1030.06 1030.64 1031.16 1031.65 1032.10 1032.52 1032.91 1033.28 1033.61 1033.91 1034.16 1034.36 1034.51 1034.59 1034.61 1034.57 1034.49 1034.35 1034.18 1033.96 1033.71 1033.40 1033.05 1032.65 1032.21 1031.73 1031.22 1030.69
1025.95 1025.98 1025.95 1025.88 1025.82 1025.80 1025.85 1026.00 1026.26 1026.63 1027.10 1027.65 1028.24 1028.86 1029.47 1030.05 1030.59 1031.08 1031.53 1031.93 1032.30 1032.64 1032.95 1033.23 1033.48 1033.70 1033.87 1034.00 1034.08 1034.11 1034.10 1034.05 1033.97 1033.85 1033.70 1033.52 1033.28 1033.00 1032.66 1032.26 1031.81 1031.30 1030.76 1030.19
1025.97 1026.11 1026.19 1026.24 1026.29 1026.36 1026.50 1026.71 1027.02 1027.42 1027.89 1028.43 1028.99 1029.56 1030.11 1030.62 1031.08 1031.49 1031.86 1032.18 1032.46 1032.71 1032.93 1033.13 1033.29 1033.41 1033.50 1033.55 1033.56 1033.54 1033.50 1033.43 1033.35 1033.24 1033.12 1032.96 1032.77 1032.52 1032.20 1031.81 1031.35 1030.84 1030.28 1029.69
1025.70 1025.95 1026.17 1026.35 1026.52 1026.72 1026.96 1027.26 1027.64 1028.08 1028.57 1029.10 1029.65 1030.18 1030.67 1031.12 1031.51 1031.85 1032.14 1032.38 1032.58 1032.75 1032.89 1032.99 1033.07 1033.11 1033.11 1033.08 1033.02 1032.95 1032.86 1032.76 1032.67 1032.58 1032.47 1032.35 1032.18 1031.96 1031.67 1031.31 1030.86 1030.35 1029.78 1029.18
1025.23 1025.60 1025.94 1026.25 1026.56 1026.88 1027.24 1027.64 1028.09 1028.59 1029.12 1029.66 1030.19 1030.69 1031.15 1031.54 1031.88 1032.15 1032.37 1032.55 1032.68 1032.78 1032.85 1032.88 1032.87 1032.83 1032.76 1032.65 1032.52 1032.38 1032.24 1032.11 1032.00 1031.90 1031.80 1031.69 1031.55 1031.35 1031.10 1030.76 1030.33 1029.83 1029.27 1028.66
1024.74 1025.20 1025.64 1026.07 1026.51 1026.95 1027.42 1027.92 1028.45 1029.01 1029.58 1030.13 1030.66 1031.14 1031.56 1031.91 1032.20 1032.42 1032.59 1032.72 1032.80 1032.84 1032.85 1032.81 1032.74 1032.63 1032.48 1032.30 1032.10 1031.89 1031.69 1031.51 1031.36 1031.23 1031.12 1031.02 1030.89 1030.72 1030.48 1030.17 1029.77 1029.28 1028.73 1028.13
1024.40 1024.92 1025.45 1025.97 1026.51 1027.05 1027.62 1028.20 1028.80 1029.41 1030.01 1030.57 1031.10 1031.56 1031.95 1032.26 1032.51 1032.70 1032.82 1032.90 1032.94 1032.94 1032.89 1032.81 1032.68 1032.50 1032.28 1032.03 1031.76 1031.48 1031.22 1030.98 1030.78 1030.61 1030.47 1030.35 1030.22 1030.05 1029.83 1029.54 1029.16 1028.71 1028.17 1027.59
1024.36 1024.92 1025.50 1026.08 1026.69 1027.31 1027.94 1028.59 1029.23 1029.87 1030.49 1031.05 1031.56 1032.00 1032.36 1032.64 1032.84 1032.99 1033.07 1033.11 1033.11 1033.06 1032.97 1032.84 1032.66 1032.42 1032.14 1031.82 1031.48 1031.14 1030.81 1030.51 1030.25 1030.04 1029.86 1029.71 1029.56 1029.39 1029.17 1028.89 1028.53 1028.10 1027.59 1027.02
1024.69 1025.27 1025.87 1026.49 1027.13 1027.79 1028.46 1029.14 1029.81 1030.46 1031.06 1031.61 1032.09 1032.49 1032.80 1033.04 1033.20 1033.29 1033.33 1033.32 1033.27 1033.17 1033.04 1032.85 1032.62 1032.33 1032.00 1031.62 1031.23 1030.83 1030.44 1030.08 1029.77 1029.50 1029.28 1029.10 1028.92 1028.73 1028.51 1028.24 1027.89 1027.47 1026.98 1026.43
1025.36 1025.93 1026.53 1027.16 1027.82 1028.49 1029.17 1029.85 1030.52 1031.14 1031.72 1032.23 1032.66 1033.01 1033.26 1033.44 1033.53 1033.56 1033.54 1033.47 1033.36 1033.21 1033.02 1032.79 1032.51 1032.17 1031.80 1031.38 1030.94 1030.50 1030.07 1029.67 1029.31 1029.01 1028.75 1028.53 1028.33 1028.12 1027.89 1027.61 1027.27 1026.86 1026.38 1025.85
1026.24 1026.80 1027.40 1028.03 1028.68 1029.34 1030.01 1030.66 1031.29 1031.88 1032.40 1032.86 1033.22 1033.49 1033.68 1033.78 1033.80 1033.76 1033.66 1033.52 1033.35 1033.14 1032.89 1032.60 1032.28 1031.91 1031.50 1031.06 1030.60 1030.13 1029.68 1029.27 1028.89 1028.56 1028.28 1028.03 1027.80 1027.57 1027.32 1027.03 1026.68 1026.27 1025.80 1025.28
1027.19 1027.75 1028.33 1028.95 1029.58 1030.22 1030.85 1031.46 1032.04 1032.56 1033.02 1033.40 1033.69 1033.88 1033.98 1034.00 1033.94 1033.82 1033.65 1033.43 1033.19 1032.92 1032.62 1032.28 1031.92 1031.53 1031.11 1030.66 1030.20 1029.74 1029.30 1028.88 1028.50 1028.17 1027.87 1027.60 1027.35 1027.10 1026.83 1026.52 1026.16 1025.75 1025.28 1024.76
1028.08 1028.63 1029.20 1029.80 1030.40 1031.00 1031.59 1032.14 1032.66 1033.11 1033.49 1033.79 1033.99 1034.10 1034.12 1034.05 1033.92 1033.72 1033.48 1033.20 1032.89 1032.57 1032.22 1031.86 1031.47 1031.07 1030.65 1030.22 1029.78 1029.35 1028.93 1028.54 1028.17 1027.84 1027.54 1027.26 1026.99 1026.72 1026.42 1026.08 1025.71 1025.28 1024.80 1024.28
1028.81 1029.36 1029.92 1030.50 1031.07 1031.62 1032.15 1032.64 1033.08 1033.45 1033.76 1033.97 1034.10 1034.13 1034.08 1033.95 1033.74 1033.49 1033.19 1032.86 1032.50 1032.14 1031.76 1031.38 1030.99 1030.60 1030.19 1029.79 1029.39 1028.99 1028.61 1028.25 1027.91 1027.59 1027.29 1027.00 1026.71 1026.41 1026.08 1025.72 1025.31 1024.87 1024.37 1023.84
1029.37 1029.91 1030.47 1031.01 1031.55 1032.05 1032.52 1032.94 1033.30 1033.60 1033.82 1033.96 1034.02 1033.99 1033.88 1033.70 1033.46 1033.16 1032.83 1032.46 1032.09 1031.70 1031.31 1030.93 1030.55 1030.17 1029.80 1029.43 1029.06 1028.71 1028.36 1028.03 1027.70 1027.39 1027.09 1026.78 1026.47 1026.14 1025.78 1025.39 1024.95 1024.48 1023.97 1023.43
1029.79 1030.33 1030.87 1031.39 1031.88 1032.32 1032.73 1033.07 1033.36 1033.59 1033.74 1033.82 1033.83 1033.75 1033.61 1033.40 1033.13 1032.81 1032.47 1032.10 1031.71 1031.33 1030.95 1030.57 1030.20 1029.85 1029.50 1029.16 1028.83 1028.50 1028.18 1027.86 1027.54 1027.23 1026.91 1026.58 1026.24 1025.87 1025.48 1025.05 1024.59 1024.10 1023.57 1023.01
1030.16 1030.70 1031.22 1031.70 1032.14 1032.52 1032.86 1033.14 1033.35 1033.51 1033.60 1033.63 1033.59 1033.49 1033.32 1033.10 1032.83 1032.52 1032.17 1031.81 1031.44 1031.06 1030.69 1030.33 1029.98 1029.64 1029.31 1028.98 1028.67 1028.35 1028.03 1027.71 1027.39 1027.06 1026.71 1026.35 1025.97 1025.57 1025.14 1024.69 1024.20 1023.68 1023.14 1022.57
1030.57 1031.10 1031.59 1032.02 1032.40 1032.73 1032.99 1033.20 1033.35 1033.44 1033.48 1033.47 1033.40 1033.27 1033.10 1032.88 1032.61 1032.31 1031.98 1031.63 1031.27 1030.90 1030.54 1030.19 1029.85 1029.51 1029.19 1028.86 1028.54 1028.22 1027.89 1027.56 1027.21 1026.85 1026.47 1026.07 1025.65 1025.22 1024.76 1024.28 1023.77 1023.23 1022.67 1022.09
1031.06 1031.56 1032.01 1032.40 1032.72 1032.98 1033.17 1033.31 1033.40 1033.44 1033.43 1033.37 1033.28 1033.14 1032.96 1032.73 1032.48 1032.18 1031.86 1031.52 1031.17 1030.82 1030.46 1030.11 1029.76 1029.42 1029.08 1028.75 1028.41 1028.07 1027.72 1027.35 1026.97 1026.58 1026.16 1025.73 1025.28 1024.82 1024.33 1023.82 1023.30 1022.75 1022.17 1021.56
1031.62 1032.09 1032.49 1032.82 1033.08 1033.28 1033.41 1033.48 1033.51 1033.49 1033.44 1033.35 1033.23 1033.07 1032.88 1032.66 1032.40 1032.11 1031.79 1031.45 1031.10 1030.74 1030.37 1030.01 1029.65 1029.29 1028.94 1028.58 1028.23 1027.86 1027.48 1027.09 1026.68 1026.25 1025.81 1025.35 1024.87 1024.38 1023.88 1023.35 1022.80 1022.23 1021.63 1021.00
1032.21 1032.64 1032.99 1033.26 1033.46 1033.59 1033.65 1033.67 1033.64 1033.58 1033.48 1033.36 1033.21 1033.04 1032.83 1032.59 1032.32 1032.02 1031.69 1031.34 1030.98 1030.60 1030.22 1029.84 1029.47 1029.09 1028.72 1028.34 1027.96 1027.58 1027.18 1026.76 1026.33 1025.88 1025.42 1024.94 1024.45 1023.94 1023.42 1022.87 1022.30 1021.71 1021.07 1020.39
1032.77 1033.14 1033.43 1033.65 1033.78 1033.85 1033.86 1033.82 1033.74 1033.63 1033.50 1033.35 1033.17 1032.96 1032.73 1032.47 1032.18 1031.86 1031.52 1031.15 1030.77 1030.37 1029.97 1029.58 1029.18 1028.79 1028.40 1028.02 1027.63 1027.23 1026.82 1026.40 1025.96 1025.50 1025.03 1024.54 1024.03 1023.51 1022.96 1022.39 1021.79 1021.15 1020.47 1019.73
1033.25 1033.56 1033.78 1033.93 1034.00 1034.01 1033.96 1033.88 1033.75 1033.61 1033.44 1033.25 1033.04 1032.81 1032.56 1032.27 1031.96 1031.62 1031.25 1030.86 1030.46 1030.05 1029.63 1029.22 1028.82 1028.42 1028.03 1027.64 1027.25 1026.85 1026.44 1026.02 1025.58 1025.12 1024.64 1024.14 1023.62 1023.07 1022.49 1021.89 1021.24 1020.55 1019.80 1018.99
1033.63 1033.86 1034.02 1034.10 1034.11 1034.05 1033.95 1033.82 1033.66 1033.47 1033.27 1033.06 1032.83 1032.57 1032.29 1031.99 1031.65 1031.29 1030.91 1030.50 1030.09 1029.66 1029.24 1028.83 1028.42 1028.03 1027.64 1027.25 1026.87 1026.48 1026.07 1025.65 1025.20 1024.74 1024.24 1023.72 1023.17 1022.58 1021.96 1021.31 1020.60 1019.85 1019.03 1018.14
Thickness
5450 5449 5444 5440 5438 5433 5424 5420 5415 5423 5422 5415 5404 5397 5392 5386 5381 5377 5372 5367 5363 5358 5354 5352 5351 5349 5348 5347 5346 5346 5345 5345 5345 5346 5347 5348 5349 5351 5353 5355 5358 5362 5365 5370
5429 5435 5431 5426 5429 5426 5420 5415 5410 5408 5405 5402 5394 5388 5381 5374 5369 5364 5360 5355 5350 5346 5343 5340 5338 5337 5336 5335 5334 5334 5333 5334 5334 5335 5336 5337 5338 5340 5342 5344 5347 5350 5353 5358
5414 5422 5416 5411 5421 5417 5413 5409 5400 5392 5391 5387 5381 5375 5368 5362 5358 5353 5348 5343 5337 5333 5330 5327 5326 5324 5323 5323 5322 5322 5322 5322 5323 5324 5325 5325 5327 5328 5331 5333 5336 5339 5342 5346
5396 5399 5386 5413 5413 5411 5402 5396 5389 5383 5379 5373 5367 5362 5357 5352 5346 5340 5335 5330 5325 5321 5318 5316 5314 5313 5312 5311 5310 5309 5309 5310 5311 5312 5313 5314 5316 5318 5320 5323 5326 5329 5332 5335
5381 5377 5394 5401 5396 5389 5382 5378 5376 5369 5365 5359 5354 5347 5344 5341 5335 5328 5322 5318 5313 5310 5307 5305 5303 5302 5301 5299 5298 5297 5297 5297 5298 5300 5302 5304 5306 5308 5310 5313 5316 5319 5322 5326
5370 5365 5375 5388 5378 5376 5370 5359 5361 5357 5350 5344 5337 5327 5329 5328 5322 5317 5312 5307 5303 5300 5297 5295 5293 5291 5289 5288 5286 5286 5286 5286 5287 5289 5291 5294 5296 5299 5301 5304 5307 5310 5314 5316
5357 5355 5368 5369 5365 5361 5347 5347 5346 5343 5337 5331 5323 5316 5315 5314 5310 5306 5302 5298 5294 5290 5287 5285 5283 5280 5278 5277 5276 5276 5276 5276 5278 5279 5281 5284 5287 5290 5292 5296 5299 5302 5305 5308
5350 5345 5354 5353 5350 5343 5337 5336 5333 5328 5322 5317 5312 5308 5305 5302 5298 5295 5291 5288 5284 5280 5277 5275 5272 5270 5269 5267 5267 5267 5267 5268 5269 5271 5273 5276 5278 5281 5284 5287 5290 5293 5296 5299
5351 5351 5350 5343 5338 5333 5329 5322 5318 5313 5309 5305 5301 5297 5294 5291 5288 5284 5281 5277 5274 5271 5268 5265 5263 5261 5259 5259 5259 5259 5259 5260 5261 5263 5265 5267 5269 5272 5275 5278 5280 5284 5287 5291
5341 5341 5338 5332 5327 5321 5315 5310 5306 5301 5297 5293 5289 5286 5283 5280 5276 5273 5270 5267 5264 5260 5258 5256 5254 5252 5251 5251 5251 5251 5252 5252 5254 5255 5257 5259 5261 5264 5266 5269 5271 5275 5279 5283
5328 5329 5324 5321 5314 5309 5304 5300 5295 5290 5286 5282 5278 5275 5272 5268 5265 5262 5260 5256 5253 5250 5248 5246 5245 5243 5242 5242 5242 5242 5243 5245 5246 5248 5249 5251 5253 5255 5258 5261 5263 5267 5271 5275
5320 5318 5311 5307 5303 5298 5292 5288 5284 5280 5277 5273 5268 5265 5262 5258 5255 5251 5248 5246 5243 5241 5238 5237 5236 5235 5235 5234 5234 5234 5236 5237 5238 5240 5242 5244 5246 5249 5252 5254 5258 5262 5265 5268
5308 5305 5299 5296 5291 5286 5280 5277 5274 5270 5266 5262 5259 5255 5252 5248 5245 5242 5239 5236 5234 5231 5229 5228 5228 5227 5227 5227 5227 5227 5227 5229 5231 5232 5234 5236 5238 5241 5244 5248 5250 5254 5257 5261
5296 5291 5286 5283 5277 5273 5269 5266 5264 5260 5256 5253 5249 5246 5242 5239 5236 5233 5230 5227 5225 5223 5221 5221 5220 5220 5220 5220 5220 5221 5221 5223 5224 5225 5226 5227 5229 5232 5235 5238 5242 5245 5249 5252
5283 5278 5273 5270 5265 5262 5258 5255 5252 5249 5246 5243 5239 5236 5233 5229 5226 5223 5221 5220 5218 5216 5215 5213 5213 5213 5213 5213 5213 5214 5215 5216 5217 5217 5219 5220 5222 5224 5227 5230 5233 5236 5240 5244
5270 5266 5262 5258 5254 5250 5247 5244 5240 5238 5235 5233 5229 5226 5223 5220 5218 5215 5213 5211 5209 5208 5207 5205 5205 5206 5205 5205 5206 5207 5208 5210 5210 5211 5212 5213 5215 5217 5219 5221 5224 5227 5231 5235
5257 5254 5251 5246 5243 5240 5237 5234 5231 5228 5225 5223 5220 5217 5214 5212 5209 5207 5205 5203 5201 5199 5198 5198 5199 5199 5198 5198 5198 5199 5200 5201 5203 5203 5204 5206 5207 5209 5211 5213 5216 5220 5223 5227
5249 5246 5242 5238 5235 5232 5229 5226 5223 5220 5217 5214 5211 5208 5205 5202 5200 5199 5197 5196 5194 5193 5193 5192 5192 5192 5192 5191 5191 5192 5192 5193 5194 5194 5196 5198 5200 5201 5203 5206 5209 5212 5216 5219
5240 5236 5232 5230 5226 5223 5219 5217 5214 5210 5208 5205 5203 5199 5196 5194 5192 5190 5189 5187 5186 5185 5186 5186 5186 5186 5185 5185 5185 5184 5185 5185 5186 5187 5188 5190 5192 5193 5195 5198 5201 5204 5207 5211
5231 5227 5224 5220 5217 5213 5210 5207 5204 5201 5199 5196 5194 5191 5189 5187 5185 5183 5181 5179 5178 5178 5179 5179 5179 5179 5178 5178 5179 5178 5178 5179 5180 5180 5181 5182 5183 5185 5187 5190 5193 5196 5199 5203
5222 5218 5215 5211 5207 5204 5201 5198 5195 5192 5190 5188 5185 5183 5181 5179 5178 5176 5174 5175 5175 5174 5173 5173 5173 5172 5172 5173 5173 5172 5172 5172 5173 5173 5174 5174 5175 5177 5179 5181 5184 5188 5191 5195
5213 5209 5206 5202 5198 5195 5193 5190 5187 5185 5182 5180 5178 5176 5174 5173 5172 5171 5169 5168 5168 5168 5167 5166 5166 5166 5167 5168 5167 5166 5166 5166 5165 5165 5165 5166 5168 5170 5172 5174 5177 5180 5183 5186
5205 5202 5198 5194 5190 5187 5184 5181 5179 5177 5174 5172 5171 5169 5168 5166 5165 5164 5163 5163 5162 5162 5161 5160 5160 5162 5163 5161 5160 5159 5159 5158 5158 5158 5158 5159 5161 5163 5165 5167 5170 5172 5175 5178
5197 5194 5189 5186 5182 5179 5176 5174 5172 5170 5167 5165 5164 5163 5161 5160 5159 5158 5157 5157 5156 5156 5155 5154 5156 5156 5156 5153 5152 5152 5152 5152 5152 5152 5153 5154 5155 5157 5159 5161 5163 5166 5168 5171
5189 5185 5181 5177 5174 5172 5170 5167 5165 5163 5162 5160 5159 5158 5156 5154 5153 5152 5151 5150 5150 5150 5149 5148 5149 5149 5148 5146 5146 5145 5145 5145 5146 5147 5148 5149 5150 5151 5153 5155 5157 5159 5162 5165
5181 5177 5174 5170 5167 5165 5163 5160 5158 5156 5155 5154 5153 5151 5150 5148 5147 5146 5145 5144 5144 5144 5143 5142 5141 5141 5141 5140 5139 5139 5139 5140 5140 5141 5142 5143 5144 5146 5148 5150 5152 5154 5157 5159
5173 5170 5166 5163 5160 5158 5155 5153 5150 5149 5148 5147 5145 5144 5143 5142 5141 5140 5139 5139 5138 5137 5136 5136 5135 5135 5134 5134 5134 5134 5134 5134 5135 5136 5137 5138 5139 5141 5142 5144 5146 5149 5151 5154